FW6664 Weather Reports


Display with metric or nautical units.
time (UTC)temp
F
wind
direction
speed
MPH
gust
MPH
rain 1hr
in
rain 24hr
in
rain mn
in
humidity
%
barometer
mb
20260506045014 56 299 0.0 1.0 0.00 0.00 0.00 33 1017.0
20260506044831 56 299 0.0 0.0 0.00 0.00 0.00 33 1017.0
20260506044508 56 299 0.0 2.0 0.00 0.00 0.00 33 1017.0
20260506044327 56 299 1.0 0.0 0.00 0.00 0.00 33 1017.0
20260506044058 56 299 1.0 2.0 0.00 0.00 0.00 33 1017.0
20260506044004 56 299 1.0 2.0 0.00 0.00 0.00 33 1017.0
20260506043842 56 299 2.0 0.0 0.00 0.00 0.00 33 1017.0
20260506043551 56 299 1.0 2.0 0.00 0.00 0.00 33 1017.0
20260506043338 56 299 3.0 0.0 0.00 0.00 0.00 33 1017.0
20260506043024 56 299 1.0 2.0 0.00 0.00 0.00 33 1017.0
20260506042833 56 299 2.0 0.0 0.00 0.00 0.00 33 1017.0
20260506042516 56 299 2.0 4.0 0.00 0.00 0.00 33 1017.0
20260506042327 56 299 2.0 0.0 0.00 0.00 0.00 33 1017.0
20260506042008 56 299 3.0 4.0 0.00 0.00 0.00 33 1017.0
20260506041844 56 299 2.0 0.0 0.00 0.00 0.00 33 1017.0
20260506041608 56 299 1.0 3.0 0.00 0.00 0.00 33 1017.0
20260506041503 56 299 1.0 3.0 0.00 0.00 0.00 33 1017.0
20260506041359 57 299 3.0 0.0 0.00 0.00 0.00 33 1017.0
20260506041034 56 299 2.0 4.0 0.00 0.00 0.00 33 1017.0
20260506040836 57 299 4.0 0.0 0.00 0.00 0.00 33 1017.0
20260506040528 56 299 2.0 5.0 0.00 0.00 0.00 33 1017.0
20260506040333 57 297 3.0 0.0 0.00 0.00 0.00 33 1017.0
20260506040020 56 295 2.0 6.0 0.00 0.00 0.00 33 1017.0
20260506035829 57 295 2.0 0.0 0.00 0.00 0.00 33 1017.0
20260506035514 56 296 3.0 6.0 0.00 0.00 0.00 33 1017.0
20260506035344 57 292 6.0 0.0 0.00 0.00 0.00 33 1017.0
20260506035043 56 293 4.0 6.0 0.00 0.00 0.00 33 1017.0
20260506034901 57 292 5.0 0.0 0.00 0.00 0.00 33 1017.0
20260506034517 57 294 3.0 5.0 0.00 0.00 0.00 33 1017.0
20260506034337 57 297 6.0 0.0 0.00 0.00 0.00 33 1017.0
20260506034014 57 297 4.0 4.0 0.00 0.00 0.00 33 1017.0
20260506033857 57 290 4.0 0.0 0.00 0.00 0.00 33 1017.0
20260506033543 57 304 3.0 5.0 0.00 0.00 0.00 33 1017.0
20260506033331 57 292 7.0 0.0 0.00 0.00 0.00 33 1017.0
20260506033040 57 292 3.0 6.0 0.00 0.00 0.00 33 1017.0
20260506032829 57 306 4.0 0.0 0.00 0.00 0.00 33 1017.0
20260506032533 57 286 4.0 6.0 0.00 0.00 0.00 33 1017.0
20260506032324 57 296 4.0 0.0 0.00 0.00 0.00 33 1017.0
20260506032029 57 295 5.0 6.0 0.00 0.00 0.00 33 1017.0
20260506031844 58 284 8.0 0.0 0.00 0.00 0.00 33 1017.0
20260506031529 57 297 4.0 6.0 0.00 0.00 0.00 33 1017.0
20260506031342 58 303 5.0 0.0 0.00 0.00 0.00 33 1017.0
20260506031020 57 291 6.0 8.0 0.00 0.00 0.00 33 1017.0
20260506030900 58 292 5.0 0.0 0.00 0.00 0.00 33 1017.0
20260506030549 57 277 5.0 8.0 0.00 0.00 0.00 33 1017.0
20260506030335 58 296 10.0 0.0 0.00 0.00 0.00 33 1017.0
20260506030043 57 296 5.0 6.0 0.00 0.00 0.00 33 1017.0
20260506025833 58 295 8.0 0.0 0.00 0.00 0.00 33 1017.0
20260506025536 58 296 4.0 6.0 0.00 0.00 0.00 33 1017.0
20260506025351 58 299 4.0 0.0 0.00 0.00 0.00 33 1017.0
20260506025012 58 289 5.0 6.0 0.00 0.00 0.00 33 1017.0
20260506024826 58 279 6.0 0.0 0.00 0.00 0.00 33 1017.0
20260506024605 58 293 4.0 6.0 0.00 0.00 0.00 33 1017.0
20260506024503 58 282 4.0 6.0 0.00 0.00 0.00 33 1017.0
20260506024340 58 307 4.0 0.0 0.00 0.00 0.00 33 1017.0
20260506024054 58 302 3.0 6.0 0.00 0.00 0.00 33 1017.0
20260506023837 59 293 7.0 0.0 0.00 0.00 0.00 33 1017.0
20260506023528 58 285 4.0 8.0 0.00 0.00 0.00 33 1017.0
20260506023335 59 305 6.0 0.0 0.00 0.00 0.00 33 1017.0
20260506023038 59 289 4.0 8.0 0.00 0.00 0.00 33 1017.0
20260506022832 59 291 10.0 0.0 0.00 0.00 0.00 33 1017.0
20260506022516 59 285 6.0 7.0 0.00 0.00 0.00 33 1017.0
20260506022328 60 280 7.0 0.0 0.00 0.00 0.00 33 1017.0
20260506022021 60 281 6.0 6.0 0.00 0.00 0.00 33 1017.0
20260506021829 60 295 7.0 0.0 0.00 0.00 0.00 33 1017.0
20260506021508 60 280 5.0 6.0 0.00 0.00 0.00 33 1017.0
20260506021343 61 281 6.0 0.0 0.00 0.00 0.00 33 1017.0
20260506021044 60 300 4.0 8.0 0.00 0.00 0.00 33 1017.0
20260506020838 61 274 3.0 0.0 0.00 0.00 0.00 33 1017.0
20260506020533 60 274 3.0 8.0 0.00 0.00 0.00 33 1017.0
20260506020335 61 289 6.0 0.0 0.00 0.00 0.00 33 1017.0
20260506020027 61 288 3.0 6.0 0.00 0.00 0.00 33 1017.0
20260506015831 61 296 9.0 0.0 0.00 0.00 0.00 33 1017.0
20260506015556 61 290 4.0 9.0 0.00 0.00 0.00 33 1017.0
20260506015328 61 292 5.0 0.0 0.00 0.00 0.00 33 1017.0
20260506015053 60 293 5.0 9.0 0.00 0.00 0.00 33 1017.0
20260506014844 61 283 6.0 0.0 0.00 0.00 0.00 33 1017.0
20260506014543 61 288 4.0 8.0 0.00 0.00 0.00 33 1017.0
20260506014338 61 212 9.0 0.0 0.00 0.00 0.00 33 1017.0
20260506014040 61 273 2.0 9.0 0.00 0.00 0.00 33 1017.0
20260506013833 61 274 5.0 0.0 0.00 0.00 0.00 33 1017.0
20260506013526 61 279 4.0 9.0 0.00 0.00 0.00 33 1017.0
20260506013327 61 290 6.0 0.0 0.00 0.00 0.00 33 1017.0
20260506013030 61 287 5.0 9.0 0.00 0.00 0.00 33 1017.0
20260506012845 62 287 9.0 0.0 0.00 0.00 0.00 33 1017.0
20260506012515 62 283 3.0 6.0 0.00 0.00 0.00 33 1017.0
20260506012401 62 281 7.0 0.0 0.00 0.00 0.00 33 1017.0
20260506012047 62 288 4.0 9.0 0.00 0.00 0.00 33 1017.0
20260506011837 63 304 5.0 0.0 0.00 0.00 0.00 33 1017.0
20260506011541 63 279 6.0 9.0 0.00 0.00 0.00 33 1017.0
20260506011354 64 283 8.0 0.0 0.00 0.00 0.00 33 1017.0
20260506011013 64 266 7.0 9.0 0.00 0.00 0.00 33 1017.0
20260506010829 64 267 4.0 0.0 0.00 0.00 0.00 33 1017.0
20260506010507 63 285 2.0 7.0 0.00 0.00 0.00 33 1017.0
20260506010331 63 284 5.0 0.0 0.00 0.00 0.00 33 1017.0
20260506010101 63 285 6.0 7.0 0.00 0.00 0.00 33 1017.0
20260506010002 63 287 6.0 7.0 0.00 0.00 0.00 33 1017.0
20260506005827 63 288 12.0 0.0 0.00 0.00 0.00 33 1017.0
20260506005558 62 297 4.0 6.0 0.00 0.00 0.00 33 1017.0
20260506005324 63 287 7.0 0.0 0.00 0.00 0.00 33 1017.0
20260506005046 62 288 6.0 7.0 0.00 0.00 0.00 33 1017.0
20260506004839 63 288 4.0 0.0 0.00 0.00 0.00 33 1017.0
20260506004541 63 281 5.0 8.0 0.00 0.00 0.00 33 1017.0
20260506004335 64 284 7.0 0.0 0.00 0.00 0.00 33 1017.0
20260506004036 64 291 7.0 8.0 0.00 0.00 0.00 33 1017.0
20260506003833 64 297 6.0 0.0 0.00 0.00 0.00 33 1017.0
20260506003531 64 287 4.0 6.0 0.00 0.00 0.00 33 1017.0
20260506003331 64 295 4.0 0.0 0.00 0.00 0.00 33 1017.0
20260506003027 64 288 4.0 9.0 0.00 0.00 0.00 33 1017.0
20260506002827 64 273 7.0 0.0 0.00 0.00 0.00 33 1017.0
20260506002521 64 305 4.0 11.0 0.00 0.00 0.00 33 1017.0
20260506002325 64 280 6.0 0.0 0.00 0.00 0.00 33 1017.0
20260506002020 64 305 6.0 11.0 0.00 0.00 0.00 33 1017.0
20260506001825 64 286 5.0 0.0 0.00 0.00 0.00 33 1017.0
20260506001514 64 288 8.0 10.0 0.00 0.00 0.00 33 1017.0
20260506001344 64 288 8.0 0.0 0.00 0.00 0.00 33 1017.0
20260506001007 65 301 8.0 8.0 0.00 0.00 0.00 33 1017.0
20260506000837 66 254 9.0 0.0 0.00 0.00 0.00 33 1017.0
20260506000556 65 293 4.0 8.0 0.00 0.00 0.00 33 1017.0
20260506000332 65 292 6.0 0.0 0.00 0.00 0.00 33 1017.0
20260506000051 64 290 5.0 11.0 0.00 0.00 0.00 33 1017.0
20260505235830 64 298 7.0 0.0 0.00 0.00 0.00 33 1017.0
20260505235548 64 290 8.0 11.0 0.00 0.00 0.00 33 1017.0
20260505235349 64 298 9.0 0.0 0.00 0.00 0.00 33 1017.0
20260505235023 64 260 3.0 7.0 0.00 0.00 0.00 33 1017.0
20260505234845 64 292 9.0 0.0 0.00 0.00 0.00 33 1017.0
20260505234515 64 304 4.0 7.0 0.00 0.00 0.00 33 1017.0
20260505234340 65 294 12.0 0.0 0.00 0.00 0.00 33 1017.0
20260505234010 64 287 3.0 6.0 0.00 0.00 0.00 33 1017.0
20260505233842 65 278 5.0 0.0 0.00 0.00 0.00 33 1017.0
20260505233505 64 270 4.0 13.0 0.00 0.00 0.00 33 1017.0
20260505233338 64 340 4.0 0.0 0.00 0.00 0.00 33 1017.0
20260505233104 64 281 7.0 13.0 0.00 0.00 0.00 33 1017.0
20260505232835 64 297 7.0 0.0 0.00 0.00 0.00 33 1017.0
20260505232545 63 259 6.0 13.0 0.00 0.00 0.00 33 1017.0
20260505232347 64 247 12.0 0.0 0.00 0.00 0.00 33 1017.0
20260505232041 63 274 6.0 11.0 0.00 0.00 0.00 33 1017.0
20260505231842 63 298 4.0 0.0 0.00 0.00 0.00 33 1017.0
20260505231512 64 269 7.0 12.0 0.00 0.00 0.00 33 1017.0
20260505231334 65 278 11.0 0.0 0.00 0.00 0.00 33 1017.0
20260505231101 65 274 6.0 13.0 0.00 0.00 0.00 33 1017.0
20260505231002 65 270 9.0 13.0 0.00 0.00 0.00 33 1017.0
20260505230832 66 282 15.0 0.0 0.00 0.00 0.00 33 1017.0
20260505230553 65 272 6.0 13.0 0.00 0.00 0.00 33 1017.0
20260505230328 65 285 6.0 0.0 0.00 0.00 0.00 33 1017.0
20260505230047 64 297 6.0 13.0 0.00 0.00 0.00 33 1017.0
20260505225843 65 273 7.0 0.0 0.00 0.00 0.00 33 1017.0
20260505225539 64 288 6.0 7.0 0.00 0.00 0.00 33 1017.0
20260505225337 64 278 6.0 0.0 0.00 0.00 0.00 33 1017.0
20260505225033 63 307 6.0 13.0 0.00 0.00 0.00 33 1017.0
20260505224833 64 282 9.0 0.0 0.00 0.00 0.00 33 1017.0
20260505224527 63 282 10.0 13.0 0.00 0.00 0.00 33 1017.0
20260505224328 64 258 11.0 0.0 0.00 0.00 0.00 33 1017.0
20260505224020 63 272 8.0 11.0 0.00 0.00 0.00 33 1017.0
20260505223905 64 296 8.0 0.0 0.00 0.00 0.00 33 1017.0
20260505223546 64 297 5.0 12.0 0.00 0.00 0.00 33 1017.0
20260505223339 64 285 7.0 0.0 0.00 0.00 0.00 33 1017.0
20260505223042 64 282 6.0 12.0 0.00 0.00 0.00 33 1017.0
20260505222834 65 235 5.0 0.0 0.00 0.00 0.00 33 1017.0
20260505222517 64 271 9.0 12.0 0.00 0.00 0.00 33 1017.0
20260505222349 65 280 8.0 0.0 0.00 0.00 0.00 33 1017.0
20260505222042 65 294 8.0 14.0 0.00 0.00 0.00 33 1017.0
20260505221844 65 254 5.0 0.0 0.00 0.00 0.00 33 1017.0
20260505221534 65 239 7.0 14.0 0.00 0.00 0.00 33 1017.0
20260505221338 66 276 9.0 0.0 0.00 0.00 0.00 33 1017.0
20260505221025 65 292 11.0 14.0 0.00 0.00 0.00 33 1017.0
20260505220855 65 286 11.0 0.0 0.00 0.00 0.00 33 1017.0
20260505220554 65 288 6.0 11.0 0.00 0.00 0.00 33 1017.0
20260505220328 65 297 6.0 0.0 0.00 0.00 0.00 33 1017.0
20260505220051 64 273 5.0 11.0 0.00 0.00 0.00 33 1017.0
20260505215906 65 301 7.0 0.0 0.00 0.00 0.00 33 1017.0
20260505215523 64 281 8.0 11.0 0.00 0.00 0.00 33 1017.0
20260505215404 65 298 8.0 0.0 0.00 0.00 0.00 33 1017.0
20260505215053 64 287 6.0 7.0 0.00 0.00 0.00 33 1017.0
20260505210331 66 291 10.0 0.0 0.00 0.00 0.00 33 1017.0
20260505210028 65 224 3.0 3.0 0.00 0.00 0.00 33 1017.0
20260505170016 57 209 3.0 6.0 0.00 0.00 0.00 33 1017.0
20260505165652 56 229 4.0 6.0 0.00 0.00 0.00 33 1017.0
20260505150339 53 294 0.0 0.0 0.00 0.00 0.00 33 1017.0
20260505091008 54 223 1.0 1.0 0.00 0.00 0.00 33 1017.0
20260505090933 54 223 2.0 0.0 0.00 0.00 0.00 33 1017.0
20260505090346 54 223 1.0 0.0 0.00 0.00 0.00 33 1017.0
20260505090109 54 223 1.0 1.0 0.00 0.00 0.00 33 1017.0